Location: Observatorio Las Palmas
(29.0667°N, 110.9333°W)
Time: 01:25:58
(UTC-07:00)

HST - Visible Passes

Search period start: 25 April 2014 00:00
Search period end: 05 May 2014 00:00
Orbit: 548 x 553 km, 28.5° (Epoch: 23 April)

Date Brightness Start Highest point End Pass type
(mag) Time Alt. Az. Time Alt. Az. Time Alt. Az.
25 Apr 2.5 20:43:34 10° WSW 20:46:32 22° SSW 20:46:32 22° SSW visible
26 Apr 2.8 20:37:30 10° WSW 20:40:14 17° SSW 20:40:24 17° SSW visible
27 Apr 3.1 20:31:48 10° SW 20:33:36 13° SSW 20:34:18 12° SSW visible
